Domov               UVHVVR             MKGP            O straneh              
ZDRAVSTVENO VARSTVO RASTLIN
  MREŽA AGROMET. POSTAJ
 ► PROGNOSTIČNA OBVESTILA
AGROMETEOROLOŠKI PODATKI -
ARSO
OBVLADOVANJE TVEGANJ ZARADI
NEUGODNIH VREMENSKIH RAZMER
  ► NARAVNE NESREČE
  ► SUŠA/MOČA
  ► NAMAKANJE
  ► ŽLED (gozdarstvo)
KARTOGRAFSKI PRIKAZI
SPLETNE POVEZAVE
PROJEKTI IN PUBLIKACIJE

AGROMETEOROLOŠKA MREŽA: VREMENSKE POSTAJE IN FENOLOŠKA OPAZOVANJA

Pregled podatkov za lokacijo Gabernik-Rogaška, meteorološka postaja 37800

Pregled senzorjev na lokaciji

ID Ime Zadnja
vrednost
Datum
zadnje
spremembe
Tip
senzorja
1828 Omočenost lista (U) 0 U 25.3.2019 00:30 A730WET
1829 Padavine (mm) 0 mm 25.3.2019 00:30 Rain-O-Matic
1827 Relativna vlaga 2 m (% RH) 44,69 % RH 25.3.2019 00:29 50YA
1826 Temperatura 2 m (°C) 14,9 °C 25.3.2019 00:30 50YA

Pregled podatkov zadnjih 24 ur

Zap.
št.
Datum in čas Gabernik-Rogaška
Omočenost
lista
Padavine Relativna
vlaga
2
m
Temperatura
2
m
1 25.3.2019 00:00
2 24.3.2019 23:30 0 0 44,7 14,9
3 24.3.2019 23:00 0 0 42,5 15,8
4 24.3.2019 22:30 0 0 42,5 15,3
5 24.3.2019 22:00 0 0 42,1 15,3
6 24.3.2019 21:30 0 0 39,9 16,1
7 24.3.2019 21:00 0 0 39 16,4
8 24.3.2019 20:30 0 0 38,7 16,7
9 24.3.2019 20:00 0 0 39,3 16,8
10 24.3.2019 19:30 0 0 39,9 17
11 24.3.2019 19:00 0 0 39,8 17,2
12 24.3.2019 18:30 0 0 37,6 17,9
13 24.3.2019 18:00 0 0 35,3 19,3
14 24.3.2019 17:30 0 0 33,5 20,2
15 24.3.2019 17:00 0 0 33,5 20,6
16 24.3.2019 16:30 0 0 33,3 21,2
17 24.3.2019 16:00 0 0 33,1 21,3
18 24.3.2019 15:30 0 0 33,1 21,9
19 24.3.2019 15:00 0 0 32,8 22
20 24.3.2019 14:30 0 0 32,9 21,3
21 24.3.2019 14:00 0 0 33,9 21
22 24.3.2019 13:30 0 0 33,9 20,2
23 24.3.2019 13:00 0 0 36,7 19,9
24 24.3.2019 12:30 0 0 39,4 18,9
25 24.3.2019 12:00 0 0 42,4 18
26 24.3.2019 11:30 0 0 46,2 16,8
27 24.3.2019 11:00 0 0 51,4 15,5
28 24.3.2019 10:30 0 0 55,8 14,1
29 24.3.2019 10:00 0 0 57,9 12,7
30 24.3.2019 09:30 0 0 63,4 11,1
31 24.3.2019 09:00 0 0 67,8 9,6
32 24.3.2019 08:30 0 0 72,1 8,1
33 24.3.2019 08:00 2 0 76,8 6,5
34 24.3.2019 07:30 2 0 77,9 6
35 24.3.2019 07:00 2 0 72,8 7,1
36 24.3.2019 06:30 5 0 76,3 6,1
37 24.3.2019 06:00 4 0 75,8 6,3
38 24.3.2019 05:30 6 0 75,6 6,3
39 24.3.2019 05:00 3 0 73,8 6,7
40 24.3.2019 04:30 3 0 74,3 6,6
41 24.3.2019 04:00 4 0 75,3 6,3
42 24.3.2019 03:30 3 0 73,3 6,8
43 24.3.2019 03:00 1 0 67,3 8,1
44 24.3.2019 02:30 0 0 65,3 8,6
45 24.3.2019 02:00 0 0 63,2 9,1
46 24.3.2019 01:30 0 0 61,3 9,5
47 24.3.2019 01:00 0 0 59,2 10
48 24.3.2019 00:30 0 0 57,3 10,5
© 2011 Ministrstvo za kmetijstvo, gozdarstvo in prehrano. Vse pravice pridržane.